NWS Watch, Warning, Advisory or Statement is in effect for Boone County, KY. View Alert


Wilmington, OH NWS (KILN) Doppler Radar Loop using GRLevel3 Software
Last 10 volume scans
Wilmington, OH Radar using GRLevel3

                    
                     

Wilmington, OH NWS Radar Loop
Wilmington OH Radar Loop

Regional Radar Loop
Regional Radar Loop

GOES 16 GeoColor (True Color daytime, multispectral IR at night) - Great Lakes Region Loop
Regional GOES 16 IR Band 15 - Great Lakes Region Loop


National Weather Service Regional Observations

Station State Time Temperature Dew Point RH Wind Heat Index Wind Chill Pressure Visibility Weather
Charleston West Virginia 9/25/2018 1:54 AM 66.9 64.0 90 S (170) at 6 N/A N/A 30.16 10.0 Light Rain
Chicago O'hare Illinois 9/25/2018 1:51 AM 70.0 66.0 87 S (190) at 5 N/A N/A 29.90 10.0 --
Cleveland Ohio 9/25/2018 2:29 AM 66.0 63.0 90 SSE (160) at 10 N/A N/A 30.07 7.0 Light Rain
Columbus Ohio 9/25/2018 1:51 AM 68.0 66.0 93 SSE (160) at 13, 18 gusts N/A N/A 30.07 4.0 Rain, Mist
Covington Kentucky 9/25/2018 1:52 AM 69.1 68.0 96 S (180) at 10 N/A N/A 30.06 10.0 --
Dayton Ohio 9/25/2018 1:56 AM 68.0 66.9 96 SSW (200) at 13 N/A N/A 30.05 9.0 --
Dothan Alabama 9/25/2018 1:53 AM 75.0 72.0 90 E (80) at 6 74.1 N/A 30.11 8.0 --
Evansville Indiana 9/25/2018 1:54 AM 73.0 71.1 94 S (170) at 9 69.6 N/A 29.98 10.0 --
Fort Wayne Indiana 9/25/2018 1:54 AM 69.1 69.1 100 SSW (200) at 7 N/A N/A 29.99 10.0 --
Frankfort Kentucky 9/25/2018 1:53 AM 69.1 66.9 93 SSE (160) at 6 N/A N/A 30.06 10.0 --
Huntsville Alabama 9/25/2018 1:53 AM 73.0 71.1 94 SE (130) at 7 69.6 N/A 30.08 10.0 --
Indianapolis Indiana 9/25/2018 1:54 AM 71.1 70.0 96 S (170) at 9 65.3 N/A 29.98 7.0 --
Knoxville Tennessee 9/25/2018 2:29 AM 69.1 69.1 100 SSW (210) at 7 N/A N/A 30.17 4.0 Rain, Mist
Lexington Kentucky 9/25/2018 1:54 AM 70.0 66.0 87 S (170) at 12 N/A N/A 30.08 10.0 --
Louisville Kentucky 9/25/2018 1:56 AM 71.1 69.1 93 SSE (150) at 9 66.7 N/A 30.03 10.0 --
Nashville Tennessee 9/25/2018 2:00 AM 73.0 70.0 90 S (170) at 13 70.7 N/A 30.06 10.0 --
Noctor/Jackson Kentucky 9/25/2018 1:53 AM 66.9 64.9 93 Variable at 3 N/A N/A 30.14 10.0 --
Paducah Kentucky 9/25/2018 1:53 AM 73.9 71.1 91 SSE (160) at 8 72.0 N/A 29.95 8.0 --
Pittsburgh Pennsylvania 9/25/2018 1:51 AM 61.0 60.1 97 SE (140) at 10 N/A N/A 30.19 9.0 Light Rain
St. Louis Missouri 9/25/2018 1:51 AM 73.9 71.1 91 SW (220) at 6 72.0 N/A 29.93 10.0 --
West Palm Beach Florida 9/25/2018 1:53 AM 82.0 77.0 85 ENE (70) at 9 90.1 N/A 30.03 10.0 --
Wilmington Ohio 9/25/2018 2:33 AM 68.0 68.0 100 S (190) at 10 N/A N/A 30.06 10.0 --

These are regional hourly observations made by the National Weather Service. The observations are usually made between 50 and 59 minutes past the hour and are usually available by 15 minutes past the next hour.


This page will reload automatically every 10 minutes.

38,303 Page Views